Flag for Germany Weather past 2 weeks in Ahrensburg, Schleswig-Holstein, Germany

Now
43 °F

Fog.


Feels Like: 39 °F
Forecast: 47 / 55 °F
Wind: 6 mph from Southwest

Location: Hamburg-Fuhlsbuettel

Current Time: May 29, 2015 at 2:32:43 AM

Latest Report: May 29, 2015 at 1:50 AM


Visibility: N/A

Pressure: 29.89 "Hg

Humidity: 93%

Dew point: 41 °F

Location of AhrensburgLocation

Historic Weather in Ahrensburg — Graph

°F

Ahrensburg temperature yesterday

Maximum temperature yesterday: 61 °F (at 2:20 PM)
Minimum temperature yesterday: 45 °F (at 11:20 PM)
Average temperature yesterday: 54 °F

Past Weeks' High & Low Weather Summary

 TemperatureHumidityPressure
High66 °F (May 22, 4:20 PM)100% (May 21, 2:20 AM)30.30 "Hg (May 21, 2:20 AM)
Low37 °F (May 24, 3:50 AM)40% (May 24, 6:50 PM)29.56 "Hg (May 19, 2:20 AM)
Average51 °F75%30.00 "Hg
* Reported May 14 1:20 AM — May 29 1:20 AM, Ahrensburg, Weather by CustomWeather, © 2015

Note: Actual official high and low records may vary slightly from our data, if they occured in-between our weather recording intervals... More about our weather records

Advertising

Ahrensburg weather history for previous 24 hours

 ConditionsComfort  
Time TempWeatherWind HumidityBarometerVisibility
1:20 AM
Fri, May 29
43 °FFog.6 mph93%29.89 "HgN/A
12:20 AM43 °FPassing clouds.3 mph93%29.89 "HgN/A
11:50 PM
Thu, May 28
45 °FPassing clouds.6 mph87%29.89 "HgN/A
11:20 PM45 °FPassing clouds.5 mph87%29.89 "HgN/A
10:50 PM46 °FPassing clouds.5 mph87%29.89 "HgN/A
10:20 PM46 °FPassing clouds.5 mph82%29.89 "HgN/A
9:50 PM50 °FPassing clouds.8 mph76%29.89 "HgN/A
9:20 PM50 °FPassing clouds.7 mph76%29.86 "HgN/A
8:50 PM52 °FPassing clouds.9 mph77%29.86 "HgN/A
8:20 PM54 °FPassing clouds.14 mph72%29.86 "HgN/A
7:50 PM54 °FPassing clouds.10 mph72%29.86 "HgN/A
7:20 PM54 °FScattered clouds.10 mph77%29.86 "HgN/A
6:50 PM54 °FBroken clouds.7 mph88%29.86 "HgN/A
6:20 PM54 °FBroken clouds.8 mph88%29.83 "HgN/A
5:50 PM52 °FLight rain. Broken clouds.9 mph88%29.86 "HgN/A
5:20 PM52 °FRain. Broken clouds.5 mph94%29.86 "Hg5 mi
4:50 PM54 °FLight rain. Broken clouds.6 mph88%29.86 "HgN/A
4:20 PM54 °FLight rain. Broken clouds.6 mph88%29.83 "HgN/A
3:50 PM54 °FBroken clouds.6 mph88%29.83 "HgN/A
3:20 PM52 °FSprinkles. Broken clouds.7 mph94%29.83 "HgN/A
2:50 PM54 °FSprinkles. Partly sunny.14 mph82%29.83 "HgN/A
2:20 PM61 °FBroken clouds.18 mph77%29.80 "HgN/A
1:50 PM57 °FScattered showers. Broken clouds.10 mph82%29.80 "HgN/A
1:20 PM59 °FSprinkles. Broken clouds.12 mph77%29.80 "HgN/A
12:50 PM59 °FPartly sunny.14 mph77%29.83 "HgN/A
12:20 PM57 °FSprinkles. Partly sunny.22 mph72%29.83 "HgN/A
11:50 AM59 °FPartly sunny.15 mph68%29.83 "HgN/A
11:20 AM57 °FBroken clouds.18 mph67%29.83 "HgN/A
10:50 AM59 °FScattered clouds.18 mph68%29.83 "HgN/A
10:20 AM59 °FScattered clouds.18 mph63%29.83 "HgN/A
9:50 AM57 °FScattered clouds.16 mph67%29.83 "HgN/A
9:20 AM57 °FPartly sunny.20 mph63%29.83 "HgN/A
8:50 AM55 °FPartly sunny.18 mph67%29.86 "HgN/A
8:20 AM55 °FBroken clouds.18 mph63%29.86 "HgN/A
7:50 AM55 °FBroken clouds.18 mph63%29.86 "HgN/A
7:20 AM54 °FBroken clouds.18 mph63%29.86 "HgN/A
6:50 AM54 °FBroken clouds.17 mph63%29.86 "HgN/A
6:20 AM54 °FSunny.18 mph63%29.86 "Hg10 mi
5:50 AM54 °FClear.15 mph63%29.89 "Hg10 mi
5:20 AM54 °FPartly cloudy.16 mph58%29.89 "HgN/A
4:50 AM55 °FClear.12 mph55%29.89 "Hg10 mi
4:20 AM55 °FPassing clouds.14 mph59%29.92 "HgN/A
3:50 AM55 °FClear.15 mph55%29.92 "Hg10 mi
3:20 AM55 °FClear.13 mph59%29.92 "Hg10 mi
2:50 AM55 °FClear.12 mph59%29.95 "Hg10 mi
2:20 AM54 °FClear.9 mph67%29.95 "Hg10 mi
Weather by CustomWeather, © 2015

See weather overviewHow to use our weather pages